Location: Czekanka
(50.4925°N, 19.2643°E)
Time: 15:18:07
(UTC+00:00)

SL-16 R/B - Pass Details

Date: 19 September 2024
Orbit: 842 x 846 km, 71.0° (Epoch: 07 October)

Event Time Altitude Azimuth Distance (km) Brightness Sun altitude
Rises 00:37:44 0° 328° (NNW) 3,413 5.6 -32.1°
Reaches altitude 10° 00:42:03 10° 359° (N) 2,475 5.2 -31.7°
Maximum altitude 00:44:10 12° 21° (NNE) 2,332 5.3 -31.5°
Drops below altitude 10° 00:46:17 10° 43° (NE) 2,472 5.5 -31.3°
Sets 00:50:34 0° 74° (ENE) 3,403 6.1 -30.8°
